USTRANSCOM 7584


MUGM
Guantánamo Bay Naval Air Station
Guantanamo, CU
KNGU
Norfolk Naval Station (Chambers Field)
Norfolk, US

Activity Log

Date Flight Route Aircraft Duration
12/24/2019 CMB7584 SOUTP EASTP ZIN Y350 ZQA BR65V ZFP WOLFO AR18 PANAL AR3 CLB ISO DRONE2 B752 3h 02m

Route Details

Aircraft Information
Primary: Boeing 757-200SF
Backup: Not Available
Route Data
Distance: 1025.27nm
Sched. Duration: 3h 29m
Avg. Duration: 3h 02m (-28m)
Times Flown: 1
Recm'd Route: SOUTP EASTP ZIN Y350 ZQA BR65V ZFP WOLFO AR18 PANAL AR3 CLB ISO DRONE2
Planned Altitude: 38,000ft
Origin Wx: MUGM 251251Z 34006KT 10SM FEW030 FEW090 BKN280 27/24 A2994 RMK AO2 SLP138 T2 SET T02720239 $
Dest. Wx: KNGU 251259Z 03014G21KT 8SM OVC008 15/13 A3013 RMK AO2 SLP202 T01500128 $
Notes: USTRANSCOM CONTRACT FLIGHT | OVERFLIGHT OF CUBA PROHIBITED | SOUTP & EASTP FIXES MANDATORY

Financial History
Total Freight: 19,054lbs
Average Load: 19,054lbs/flt
Fuel Used: 20,303lbs
Avg. Fuel Used: 20,303lbs/flt
Fuel Expense: $16,242
Avg. Fuel Expense: $16,242
Avg. Fuel Cost: $0.80/lbs
Total Gross Income: $32,773
Pilot Pay: $229
Total Expenses: $3,591
Total Revenue: $12,244
Average Revenue: $32,772.88